Location: Prague
(50.0830°N, 14.4670°E)
Time: 03:24:40
(UTC+01:00)

AO-7 - Pass Details

Date: 15 December 2021
Orbit: 1440 x 1459 km, 101.9° (Epoch: 28 January)

Event Time Altitude Azimuth Distance (km) Brightness Sun altitude
Rises 06:52:57 0° 19° (NNE) 4,551 ? -9.3°
Reaches altitude 10° 06:56:15 10° 8° (N) 3,573 ? -8.8°
Maximum altitude 07:02:40 26° 316° (NW) 2,543 ? -7.9°
Drops below altitude 10° 07:09:07 10° 265° (W) 3,573 ? -7.0°
Sets 07:12:26 0° 254° (WSW) 4,551 ? -6.5°
